Location: Ithaca
(42.4410°N, 76.4970°W)
Time: 15:50:04
(UTC-04:00)

ISS - Visible Passes

Search period start: 31 May 2016 00:00
Search period end: 10 June 2016 00:00
Orbit: 402 x 404 km, 51.6° (Epoch: 31 May)

Date Brightness Start Highest point End Pass type
(mag) Time Alt. Az. Time Alt. Az. Time Alt. Az.
31 May -0.3 00:26:58 10° NW 00:29:12 17° N 00:31:25 10° NE visible
31 May -1.8 02:03:13 10° NW 02:06:00 36° N 02:06:00 36° N visible
31 May -1.0 21:56:02 10° W 21:58:54 27° NNW 22:01:45 10° NE visible
31 May -0.2 23:33:59 10° NW 23:36:08 16° N 23:38:17 10° NE visible
01 Jun -1.2 01:10:33 10° NW 01:13:23 26° NNE 01:13:34 26° NNE visible
01 Jun -0.3 22:40:49 10° NW 22:43:04 17° N 22:45:18 10° NE visible
02 Jun -0.7 00:17:51 10° NW 00:20:22 20° NNE 00:21:52 15° NE visible
02 Jun -0.6 01:53:58 10° NW 01:54:26 13° NW 01:54:26 13° NW visible
02 Jun -0.5 21:47:31 10° WNW 21:50:00 20° NNW 21:52:29 10° NE visible
02 Jun -0.4 23:25:02 10° NW 23:27:19 17° N 23:29:36 10° NE visible
03 Jun -1.2 01:01:14 10° NW 01:02:58 26° NNW 01:02:58 26° NNW visible
03 Jun -0.4 22:32:03 10° NW 22:34:13 16° N 22:36:22 10° NE visible
04 Jun -1.5 00:08:32 10° NW 00:11:26 28° NNE 00:11:37 28° NNE visible
04 Jun -0.4 21:38:54 10° NW 21:41:06 17° N 21:43:18 10° NE visible
04 Jun -0.9 23:15:47 10° NW 23:18:24 21° NNE 23:20:20 14° ENE visible
05 Jun -0.8 00:51:55 10° NW 00:52:55 18° NW 00:52:55 18° NW visible
05 Jun -0.6 22:22:58 10° NW 22:25:19 18° N 22:27:40 10° NE visible
05 Jun -2.1 23:59:08 10° NW 00:01:42 41° N 00:01:42 41° N visible
06 Jun -0.5 21:30:01 10° NW 21:32:11 16° N 21:34:22 10° NE visible
06 Jun -1.7 23:06:23 10° NW 23:09:22 31° NNE 23:10:30 24° ENE visible
07 Jun -0.5 00:42:45 10° WNW 00:43:05 12° WNW 00:43:05 12° WNW visible
07 Jun -1.2 22:13:37 10° NW 22:16:18 23° NNE 22:19:00 10° ENE visible
07 Jun -2.1 23:49:46 10° WNW 23:51:55 38° WNW 23:51:55 38° WNW visible
08 Jun -0.9 21:20:47 10° NW 21:23:12 19° N 21:25:37 10° ENE visible
08 Jun -2.9 22:56:55 10° NW 23:00:09 57° NNE 23:00:47 46° ENE visible
09 Jun -2.0 22:04:07 10° NW 22:07:10 35° NNE 22:09:40 13° E visible
09 Jun -1.5 23:40:36 10° WNW 23:42:16 23° W 23:42:16 23° W visible
